Regional Weather Roundup
Issued by NWS Cleveland, OH

Home | Current Version | Previous Version | Graphics & Text | Print | Product List | Glossary On
Versions: 1 2 3 4 5 6 7 8 9 10 11 12 13 14 15 16 17 18 19 20 21 22 23 24 25 26 27 28 29 30 31 32 33 34 35 36 37 38 39 40 41 42 43 44 45 46 47 48 49 50
711
ASUS41 KCLE 242310
RWRCLE
OHIO REGIONAL WEATHER ROUNDUP
NATIONAL WEATHER SERVICE CLEVELAND, OH
600 PM EST FRI NOV 24 2017

NOTE: "FAIR" INDICATES FEW OR NO CLOUDS BELOW 12,000 FEET WITH NO
SIGNIFICANT WEATHER AND/OR OBSTRUCTIONS TO VISIBILITY.

OHZ001>008-015>018-024>027-034-035-043-044-250000-
   NORTHWEST OHIO

CITY           SKY/WX    TMP DP  RH WIND       PRES   REMARKS
DEFIANCE       CLEAR     50  33  52 S14       29.67F
FINDLAY        CLEAR     47  30  51 S15       29.71S
TOLEDO EXPRESS CLEAR     50  35  56 S9        29.68S
TOLEDO EXEC    CLEAR     48  32  53 S15       29.69F
LIMA           CLEAR     48  30  49 S13       29.72S
$$

OHZ009>014-019>023-028>033-038-089-250000-
   NORTHEAST OHIO

CITY           SKY/WX    TMP DP  RH WIND       PRES   REMARKS
CLE-HOPKINS    PTCLDY    51  26  37 S14G24    29.75F
CLE-LAKEFRONT  CLEAR     50  25  37 S16       29.72F
CUY CO. ARPT   PTCLDY   N/A N/A N/A S13G23    29.73F
LORAIN-ELYRIA  CLEAR     48  25  40 S15       29.73S
ASHTABULA      CLEAR     48  24  39 S12       29.75S
AKRON-CANTON   PTCLDY    47  23  38 S12       29.78F
WOOSTER        CLEAR     46  25  43 S10       29.77F
MANSFIELD      CLOUDY    47  28  47 S15       29.75F
YOUNGSTOWN     PTCLDY    46  23  40 S7        29.77F
$$

OHZ042-051>053-060>062-070>072-077>081-250000-
  SOUTHWEST OHIO

CITY           SKY/WX    TMP DP  RH WIND       PRES   REMARKS
CINC-COVINGTON PTCLDY    48  29  47 S9        29.80F
CINC-LUNKEN    CLEAR     49  27  42 SW7       29.82S
HAMILTON       CLEAR     51  28  41 S5        29.81S
DAYTON         PTCLDY    50  29  44 S13       29.77F
WRIGHT-PAT AFB PTCLDY    49  25  39 S9        29.77S
DAYTON GENERAL CLEAR     48  27  44 S8        29.78S
WILMINGTON     CLEAR     46  30  53 S10       29.80S
$$

OHZ036-037-039>041-045>050-054>059-063>069-073>076-082>088-250000-
  CENTRAL AND SOUTHEAST OHIO

CITY           SKY/WX    TMP DP  RH WIND       PRES   REMARKS
COLUMBUS       PTCLDY    50  26  39 S6        29.79F
OSU AIRPORT    CLEAR     50  28  42 S12       29.78F
BOLTON FIELD   CLEAR     48  28  46 S9        29.80F
RICKENBACK AFB CLEAR     46  27  46 S9        29.80F
NEWARK         CLEAR     48  24  39 S5        29.80F
MARION         CLEAR     48  28  46 S14       29.76S
LANCASTER      CLEAR     46  25  43 S3        29.81F
ZANESVILLE     CLEAR     46  22  38 S6        29.82F
NEW PHILLY     NOT AVBL
$$




USA.gov is the U.S. government's official web portal to all federal, state and local government web resources and services.